COSMOS 2219

Last updated on Thu Oct 30 2025 00:02:15 GMT+0000 (Coordinated Universal Time)

1 22219U 92076A 25302.37107674 .00000453 00000+0 26265-3 0 9992 2 22219 71.0591 292.5787 0016777 35.4915 324.7320 14.14055335699811
UTC large
Height (km)
Speed (km/s)
/
Latitude / Longitude
Inclination (degrees)
Orbital Period (minutes)
Azimuth
Elevation
Range (km)
Doppler Factor

Next 0 passes for location: London (51.5072 / 0.1276)

Sorry there are no passes over London.